Wetbulb
74.49 77.03 78.76 78.84 78.48 77.95 77.80 77.37 77.02 76.74 76.81 76.81 76.79 76.84 77.03 77.01 77.31 77.24 76.96 77.04 76.99 76.78 76.13 75.46 74.53 74.06 74.49 74.21 74.69 75.42 75.37 74.93 74.54 74.09 74.36 74.73 74.48 73.10 73.53 73.94 74.62 71.27 72.37
75.71 76.92 78.22 78.43 78.43 78.08 77.80 77.54 76.99 76.56 76.70 76.73 76.84 76.81 77.01 77.16 77.16 77.31 77.04 76.79 76.48 75.58 75.07 74.42 73.62 73.82 74.21 74.11 74.30 74.32 74.06 73.91 73.33 73.26 74.19 74.07 74.16 73.23 73.02 73.09 73.70 71.77 72.15
75.11 76.84 77.62 78.25 78.53 78.18 77.87 77.69 77.01 76.58 76.78 76.76 76.61 76.81 76.98 77.11 76.91 77.04 76.84 76.64 76.02 74.64 74.08 73.48 73.43 73.61 74.00 74.20 74.20 74.06 73.81 72.97 72.72 72.78 73.86 72.91 70.83 73.12 72.95 72.71 72.93 72.68 72.24
75.60 76.41 77.03 78.17 78.30 78.35 77.85 77.57 76.96 76.76 76.75 76.83 76.73 76.86 76.96 77.03 76.89 76.49 76.49 76.28 75.15 73.89 73.03 72.93 73.32 73.69 73.68 73.90 74.02 73.81 73.38 73.29 74.07 75.17 72.91 73.15 70.50 73.31 72.72 72.26 72.28 72.57 72.17
75.29 76.01 77.51 78.04 78.20 78.07 78.02 77.57 77.01 76.76 76.80 76.86 76.88 76.96 76.96 76.88 76.70 76.35 76.26 75.86 74.63 73.29 72.39 72.28 73.23 73.86 73.91 73.70 73.55 73.26 72.91 73.21 73.94 72.58 71.24 71.22 71.19 73.20 73.78 72.15 72.08 71.93 72.37
74.88 75.69 76.96 77.68 77.91 78.02 78.04 77.74 77.21 76.98 77.03 76.98 77.01 76.98 76.83 76.61 76.42 76.40 75.93 75.56 74.77 73.45 72.49 72.65 73.09 73.39 73.35 73.23 72.43 71.60 71.69 72.10 72.48 69.34 70.78 70.38 71.40 74.35 74.35 73.08 72.70 72.40 71.55
74.74 77.12 76.67 77.50 77.68 77.94 78.05 77.81 77.41 77.13 77.08 77.06 77.19 76.96 76.73 76.58 76.20 75.95 75.73 75.18 74.54 73.51 72.56 72.01 71.98 72.03 72.40 72.17 71.60 71.51 71.25 71.52 68.35 67.03 67.61 71.30 72.14 74.25 74.78 73.55 72.95 72.62 72.01
75.15 76.99 76.25 77.06 77.47 77.53 77.73 77.58 77.30 77.03 76.93 77.10 77.01 76.91 76.65 76.24 75.92 75.48 75.33 75.03 74.53 73.42 72.83 71.99 71.43 71.04 71.32 71.17 70.90 70.49 70.49 70.26 67.98 66.42 68.77 70.49 73.14 74.63 74.67 74.19 73.67 72.99 72.19
75.27 77.10 75.97 75.20 76.67 77.19 77.01 77.06 76.78 76.68 76.77 76.74 76.57 76.39 76.29 75.94 75.52 75.28 75.01 74.48 74.07 73.36 72.88 72.40 71.75 70.98 70.49 70.18 70.08 70.45 70.85 70.41 68.03 66.38 67.69 70.56 73.11 73.88 74.21 74.16 73.90 73.63 73.06
73.66 76.32 75.29 75.09 74.91 75.80 76.23 76.85 76.63 76.63 76.53 76.41 76.33 76.26 75.91 75.74 75.27 74.90 74.66 74.33 73.88 73.19 72.83 72.31 71.59 71.42 71.01 70.61 70.64 70.93 71.12 70.24 67.31 65.68 66.57 70.27 73.32 74.09 73.31 73.79 74.35 74.61 74.68
72.60 75.29 74.99 73.33 74.03 74.11 74.55 76.11 76.31 76.52 76.53 76.38 76.37 76.03 74.94 74.17 74.10 73.77 73.32 73.88 73.98 73.43 72.83 72.56 72.13 71.66 71.32 71.35 71.51 71.36 71.20 66.93 65.54 67.05 68.87 72.31 72.27 72.47 72.46 73.02 73.53 74.81 75.08
71.05 72.94 75.18 73.88 73.56 73.29 72.92 75.03 75.25 75.63 75.59 75.51 75.38 75.28 74.44 73.53 73.83 72.42 72.55 73.89 73.94 73.54 73.09 72.91 72.67 72.27 71.37 67.42 67.60 71.30 68.14 66.59 65.74 67.03 69.65 72.51 72.52 73.03 72.66 73.15 73.75 74.31 74.95
71.43 71.89 74.74 75.47 74.96 73.74 73.03 74.84 73.48 73.19 73.87 74.56 75.05 75.29 74.56 73.08 73.49 71.91 72.07 70.81 71.73 72.74 70.30 71.22 70.62 69.55 67.64 67.20 67.28 68.37 68.17 68.35 68.45 69.07 71.54 72.94 73.27 73.77 73.61 73.87 74.16 74.21 74.65
70.03 69.82 74.68 76.08 76.06 75.16 74.65 74.57 74.34 72.22 72.12 72.09 72.68 73.98 73.87 72.92 72.65 71.21 71.13 69.77 70.07 69.75 67.89 68.35 67.71 67.91 67.64 68.50 70.05 70.26 70.90 70.43 69.52 71.60 71.70 73.20 73.04 73.38 74.04 74.14 74.51 74.78 74.73
66.70 73.35 71.95 74.40 76.66 75.21 76.93 77.61 74.86 72.68 72.34 71.89 72.47 72.52 72.77 72.96 73.23 72.13 70.37 71.08 70.34 69.03 68.15 67.69 68.74 68.56 69.77 69.82 69.45 71.31 71.13 70.90 71.77 71.33 71.48 73.16 72.61 72.59 73.60 74.23 74.77 74.93 75.66
69.23 73.07 72.88 72.63 70.82 75.79 75.45 78.01 79.04 75.09 73.77 72.73 72.49 71.89 72.96 74.32 72.68 72.44 72.47 71.15 70.45 68.87 69.42 68.54 69.72 69.90 69.42 69.03 69.63 72.74 72.40 72.39 72.58 72.50 72.24 72.36 72.92 72.72 73.18 74.07 74.57 74.94 75.73
66.93 74.99 71.13 72.22 64.43 66.29 76.47 77.33 77.32 77.35 75.13 74.06 72.63 73.21 72.96 73.36 74.26 73.15 71.60 72.45 71.46 72.57 72.39 70.93 71.34 71.51 70.86 70.56 70.13 71.59 72.57 72.86 72.78 73.17 73.52 72.87 72.46 72.94 73.01 73.54 74.00 74.67 75.18
68.24 70.64 74.42 72.11 72.20 74.99 77.17 76.75 76.49 75.73 76.28 74.16 75.47 74.88 73.95 72.96 73.74 74.36 72.01 70.70 71.55 73.05 71.73 70.78 69.48 68.96 68.40 68.09 69.24 70.94 71.57 72.68 73.25 73.38 72.80 72.36 71.78 71.82 72.40 73.29 73.51 73.98 74.38
67.93 69.06 69.54 71.17 70.80 75.81 77.14 77.03 77.07 77.06 76.22 76.06 74.81 74.93 75.36 74.09 73.65 74.00 71.86 70.97 71.89 70.85 70.76 69.59 70.26 68.18 67.01 67.78 69.36 71.02 71.47 72.08 72.47 72.12 73.10 73.10 72.94 72.28 71.35 73.48 72.51 72.88 73.46
65.41 66.80 67.83 68.54 70.31 72.97 73.47 76.95 76.28 76.00 76.09 76.87 75.84 74.48 75.59 75.17 74.16 73.30 73.04 72.08 71.90 70.15 69.67 69.76 68.87 69.41 68.24 67.92 67.64 67.52 69.63 71.63 72.08 71.46 72.63 73.21 72.48 72.55 72.11 72.29 72.03 71.60 72.36
65.88 67.25 68.75 69.33 71.02 71.32 70.55 71.57 74.39 73.01 74.12 75.30 75.51 76.76 74.64 74.73 75.01 74.15 73.55 73.10 74.13 70.88 69.80 69.69 68.91 69.93 68.85 70.06 68.52 67.40 68.27 70.28 71.19 72.31 70.18 70.30 71.17 71.73 71.48 71.76 72.86 74.35 72.94
64.46 66.43 69.31 70.52 71.30 71.66 71.33 70.95 70.07 72.83 73.83 73.94 75.18 75.34 74.87 75.14 74.97 75.26 74.27 72.97 73.42 73.06 72.15 71.60 70.45 68.54 69.94 68.61 65.70 66.63 63.66 66.19 70.21 69.23 70.03 70.27 70.64 71.70 71.84 72.30 73.99 73.78 71.70
65.08 66.53 67.66 69.59 70.69 70.81 71.13 69.36 69.23 73.53 73.74 71.46 73.24 75.07 75.53 75.19 74.92 74.84 74.92 73.50 72.92 72.66 70.46 71.52 71.52 69.65 66.97 68.49 68.83 66.73 63.57 61.82 65.53 68.95 69.54 69.27 70.60 70.75 70.18 71.15 71.92 72.55 72.35
63.30 65.87 66.40 68.24 69.07 67.57 69.90 68.26 69.37 68.15 66.76 69.96 71.02 72.92 73.76 75.02 74.58 74.72 74.28 74.32 72.91 73.15 70.63 71.29 71.33 70.45 68.46 65.79 68.74 68.64 69.61 67.46 61.88 61.61 67.38 68.40 70.64 69.59 69.50 70.15 71.29 71.02 71.19
62.70 64.42 66.32 67.22 68.27 68.28 69.85 70.54 67.73 66.39 66.14 68.05 68.89 69.58 71.68 73.90 73.58 74.39 74.09 73.47 73.86 73.37 72.86 71.90 71.50 70.71 69.37 67.12 68.22 67.89 67.70 67.55 67.11 63.52 59.76 63.91 67.95 67.92 68.77 69.32 69.73 70.57 70.30
61.05 62.17 64.86 65.81 65.98 68.20 67.43 68.35 68.96 68.04 66.96 66.22 66.59 67.12 68.09 70.91 72.62 72.95 72.57 73.47 73.58 73.55 72.99 72.12 71.97 71.01 69.69 68.09 68.68 68.05 66.58 65.08 64.09 63.56 61.45 60.77 60.64 62.92 66.26 67.45 70.05 69.34 69.84
MSLP
1004.70 1005.83 1006.29 1006.81 1007.35 1007.95 1008.47 1008.84 1009.13 1009.53 1010.02 1010.53 1010.81 1011.11 1011.32 1011.55 1011.86 1012.11 1012.35 1012.62 1012.87 1013.05 1013.29 1013.54 1013.75 1013.85 1013.85 1013.81 1013.86 1013.99 1014.19 1014.26 1014.37 1014.47 1014.51 1014.61 1014.88 1015.02 1015.08 1015.03 1014.59 1015.26 1015.54
1004.50 1005.72 1006.34 1006.74 1007.33 1007.97 1008.59 1009.01 1009.34 1009.78 1010.27 1010.69 1011.02 1011.33 1011.63 1011.90 1012.19 1012.53 1012.76 1012.94 1013.13 1013.29 1013.48 1013.66 1013.80 1013.91 1013.97 1013.96 1014.09 1014.31 1014.44 1014.49 1014.49 1014.58 1014.66 1014.76 1014.83 1015.09 1015.23 1015.33 1015.25 1015.63 1015.76
1004.75 1005.82 1006.33 1006.75 1007.40 1007.95 1008.58 1009.09 1009.51 1010.01 1010.47 1010.79 1011.11 1011.50 1011.87 1012.17 1012.45 1012.75 1013.01 1013.28 1013.41 1013.56 1013.76 1013.91 1014.04 1014.10 1014.13 1014.14 1014.33 1014.47 1014.56 1014.58 1014.67 1014.80 1014.89 1014.73 1014.67 1014.95 1015.33 1015.58 1015.76 1015.83 1015.95
1005.01 1005.99 1006.59 1006.98 1007.35 1007.97 1008.61 1009.15 1009.60 1010.07 1010.61 1010.98 1011.29 1011.62 1011.98 1012.33 1012.70 1012.94 1013.21 1013.47 1013.65 1013.78 1014.00 1014.17 1014.23 1014.25 1014.29 1014.50 1014.66 1014.78 1014.83 1014.71 1014.57 1014.68 1014.53 1014.21 1014.35 1014.99 1015.21 1015.57 1015.77 1015.93 1016.04
1004.97 1005.83 1006.76 1007.31 1007.63 1008.09 1008.57 1009.10 1009.67 1010.18 1010.62 1011.01 1011.44 1011.78 1012.06 1012.41 1012.72 1013.11 1013.45 1013.66 1013.79 1013.96 1014.12 1014.25 1014.33 1014.44 1014.49 1014.61 1014.79 1014.95 1015.00 1014.89 1014.75 1014.70 1014.19 1013.67 1014.30 1015.18 1015.27 1015.68 1015.88 1016.05 1016.15
1004.69 1005.42 1006.93 1007.43 1007.75 1008.17 1008.60 1009.17 1009.65 1010.11 1010.63 1011.03 1011.47 1011.85 1012.27 1012.58 1012.84 1013.09 1013.37 1013.65 1013.95 1014.10 1014.22 1014.34 1014.50 1014.63 1014.67 1014.75 1014.94 1015.04 1015.13 1015.09 1015.01 1014.53 1014.02 1013.76 1014.26 1014.96 1015.22 1015.64 1015.96 1016.06 1016.21
1003.99 1005.36 1006.77 1007.57 1007.91 1008.17 1008.79 1009.11 1009.53 1009.95 1010.49 1011.06 1011.40 1011.77 1012.18 1012.67 1013.02 1013.23 1013.47 1013.67 1013.92 1014.26 1014.40 1014.58 1014.66 1014.76 1014.95 1014.97 1015.00 1015.04 1015.10 1015.16 1015.03 1014.40 1014.02 1013.79 1014.53 1015.03 1015.18 1015.41 1015.74 1015.99 1016.15
1003.78 1005.40 1006.56 1007.33 1007.97 1008.26 1008.53 1009.04 1009.47 1009.91 1010.21 1010.71 1011.31 1011.77 1012.11 1012.54 1012.92 1013.28 1013.59 1013.77 1013.90 1014.11 1014.39 1014.61 1014.77 1014.86 1014.97 1015.03 1015.07 1015.12 1015.18 1015.08 1014.71 1014.41 1014.03 1013.90 1014.46 1014.79 1015.10 1015.43 1015.67 1015.92 1016.05
1003.87 1005.19 1006.53 1007.23 1007.91 1008.32 1008.63 1008.94 1009.42 1009.78 1010.15 1010.54 1011.02 1011.52 1012.02 1012.47 1012.87 1013.16 1013.48 1013.80 1014.03 1014.27 1014.40 1014.75 1014.82 1014.85 1014.87 1014.99 1015.04 1015.06 1015.05 1015.13 1015.07 1014.48 1013.75 1013.79 1014.47 1014.61 1014.92 1015.28 1015.60 1015.75 1015.93
1003.67 1004.87 1006.29 1007.15 1007.76 1008.27 1008.73 1009.08 1009.29 1009.71 1010.23 1010.55 1011.00 1011.41 1011.74 1012.25 1012.69 1013.04 1013.35 1013.62 1013.93 1014.26 1014.51 1014.55 1014.77 1015.01 1015.03 1015.07 1014.99 1014.87 1014.94 1014.94 1014.80 1014.17 1013.54 1013.75 1014.03 1014.37 1014.74 1014.90 1015.25 1015.51 1015.61
1002.91 1004.15 1005.47 1006.75 1007.33 1007.80 1008.21 1009.04 1009.45 1009.67 1009.91 1010.52 1010.85 1011.30 1011.78 1011.99 1012.49 1012.85 1012.89 1013.19 1013.55 1013.79 1014.13 1014.35 1014.59 1014.80 1014.93 1014.99 1014.82 1014.73 1014.77 1014.73 1014.16 1013.66 1013.75 1013.66 1013.87 1014.10 1014.49 1014.81 1014.93 1015.28 1015.48
1002.09 1003.07 1004.39 1005.59 1006.53 1007.14 1007.20 1008.17 1009.02 1009.51 1009.77 1009.91 1010.38 1010.82 1011.07 1011.27 1011.59 1012.05 1012.32 1012.95 1013.27 1013.61 1013.87 1014.04 1014.11 1014.41 1014.67 1014.41 1013.93 1014.31 1014.44 1014.10 1013.47 1013.03 1013.13 1013.57 1013.66 1013.81 1014.23 1014.61 1014.78 1014.90 1015.27
1001.61 1002.15 1002.87 1004.34 1005.73 1006.67 1007.01 1007.57 1008.15 1008.63 1009.21 1009.52 1009.71 1010.09 1010.49 1010.55 1010.92 1011.27 1011.87 1012.42 1013.03 1013.17 1013.51 1013.75 1013.94 1013.87 1013.79 1013.61 1013.11 1013.49 1013.69 1013.33 1012.92 1012.27 1012.93 1013.46 1013.61 1013.65 1013.95 1014.34 1014.60 1014.76 1014.91
1001.27 1001.67 1003.23 1003.35 1004.89 1005.95 1006.43 1007.11 1007.78 1008.09 1008.46 1009.09 1009.41 1009.61 1009.79 1010.24 1010.33 1010.50 1011.21 1011.64 1012.10 1012.41 1012.76 1012.94 1013.12 1012.98 1013.03 1012.87 1012.54 1012.55 1012.71 1012.51 1012.42 1012.60 1013.01 1013.32 1013.37 1013.43 1013.59 1013.92 1014.27 1014.42 1014.64
1001.54 1002.18 1002.91 1003.42 1004.62 1005.62 1005.91 1006.27 1006.85 1007.53 1007.78 1008.22 1008.54 1009.24 1009.43 1009.73 1009.70 1010.20 1010.41 1010.59 1010.96 1011.30 1011.89 1012.23 1012.22 1012.43 1012.34 1012.35 1012.46 1012.35 1012.30 1012.29 1012.32 1012.56 1012.81 1012.97 1013.05 1013.05 1013.25 1013.49 1013.75 1014.06 1014.09
1001.89 1002.90 1003.76 1004.40 1005.76 1006.29 1007.53 1005.92 1006.52 1007.02 1007.12 1007.21 1007.73 1008.23 1008.53 1009.09 1009.36 1009.47 1009.92 1010.45 1010.71 1010.47 1010.68 1011.14 1011.44 1011.77 1011.79 1011.99 1012.19 1012.01 1012.12 1012.00 1012.07 1012.19 1012.31 1012.65 1012.75 1012.79 1012.92 1012.96 1013.22 1013.51 1013.73
1002.24 1002.94 1004.29 1004.78 1005.44 1007.19 1006.58 1006.03 1006.49 1006.66 1006.65 1007.12 1007.36 1007.17 1007.97 1008.50 1008.91 1009.14 1009.48 1009.85 1010.07 1009.98 1010.05 1010.40 1010.90 1011.23 1011.71 1011.91 1011.77 1011.70 1011.87 1011.69 1011.54 1011.71 1012.00 1012.01 1012.09 1012.36 1012.63 1012.77 1012.73 1012.91 1013.27
1002.37 1003.03 1003.30 1003.95 1004.88 1005.35 1005.22 1005.78 1006.42 1006.71 1006.75 1006.83 1006.82 1006.79 1007.43 1007.94 1008.41 1008.91 1009.21 1009.68 1009.59 1009.67 1009.92 1010.28 1010.31 1011.01 1011.40 1011.71 1011.64 1011.29 1011.27 1011.41 1011.15 1011.00 1011.15 1011.53 1011.56 1011.66 1012.12 1012.45 1012.47 1012.59 1012.68
1002.73 1003.26 1003.72 1004.11 1004.35 1004.77 1004.82 1005.52 1006.02 1006.36 1006.34 1006.31 1006.35 1006.55 1006.74 1007.49 1008.13 1008.73 1009.00 1009.23 1009.35 1009.57 1009.54 1009.72 1010.25 1010.63 1011.43 1011.29 1010.91 1010.62 1010.99 1010.94 1010.69 1010.53 1010.88 1011.06 1011.07 1011.20 1011.30 1011.52 1011.83 1012.02 1012.27
1003.06 1003.72 1004.15 1004.52 1004.50 1004.75 1005.38 1005.39 1005.39 1005.45 1005.53 1005.58 1005.84 1006.01 1005.98 1006.49 1007.36 1008.01 1008.62 1009.13 1009.29 1009.47 1009.49 1009.21 1009.72 1009.45 1010.21 1010.50 1010.50 1010.40 1010.77 1010.64 1010.44 1010.62 1010.43 1010.31 1010.73 1010.85 1010.85 1011.16 1011.55 1011.76 1011.80
1003.13 1004.08 1004.58 1004.77 1004.91 1004.97 1004.92 1004.89 1004.72 1004.75 1004.91 1005.07 1005.29 1005.41 1005.47 1005.67 1006.13 1007.10 1007.81 1008.45 1008.87 1008.91 1008.75 1009.02 1009.38 1009.67 1009.52 1010.09 1010.54 1010.41 1010.53 1010.61 1010.68 1010.82 1010.61 1010.05 1010.12 1010.30 1010.49 1010.87 1011.12 1011.25 1011.31
1003.13 1003.99 1004.49 1004.82 1005.03 1005.09 1005.03 1004.93 1004.75 1004.15 1003.87 1003.91 1004.13 1004.49 1004.71 1005.09 1005.67 1006.58 1006.81 1007.28 1007.75 1008.26 1008.52 1008.73 1008.83 1008.86 1009.31 1009.45 1009.92 1010.47 1011.06 1010.82 1010.82 1010.71 1010.61 1010.13 1009.94 1010.04 1009.98 1010.02 1010.43 1010.71 1010.96
1003.26 1003.69 1004.03 1004.43 1004.83 1005.22 1005.21 1004.99 1004.70 1004.04 1003.59 1003.56 1003.58 1003.46 1003.75 1004.08 1004.64 1005.45 1006.09 1006.32 1006.63 1007.16 1007.34 1007.61 1007.81 1007.84 1008.40 1008.84 1009.17 1009.82 1010.26 1010.02 1010.40 1010.44 1010.08 1009.93 1010.02 1009.81 1009.87 1009.70 1009.50 1009.81 1010.20
1003.36 1003.61 1003.94 1004.37 1004.74 1005.02 1005.25 1005.25 1004.91 1004.62 1004.32 1003.86 1003.41 1003.00 1002.85 1002.83 1002.50 1003.19 1004.16 1004.48 1005.13 1005.62 1006.13 1006.47 1006.89 1007.17 1007.68 1007.86 1008.41 1008.67 1008.52 1008.77 1009.45 1009.92 1009.74 1009.49 1009.50 1009.71 1009.83 1009.71 1009.76 1009.77 1010.12
1003.40 1003.65 1004.13 1004.57 1004.95 1005.15 1005.01 1004.93 1004.85 1004.71 1004.34 1003.95 1003.60 1003.17 1002.64 1002.08 1002.50 1000.00 1001.75 1001.94 1002.78 1002.91 1003.47 1004.07 1005.08 1005.90 1006.12 1006.73 1007.17 1007.91 1008.24 1008.49 1008.77 1009.07 1009.17 1009.13 1009.23 1009.31 1009.47 1009.41 1009.39 1009.63 1009.82
1003.41 1003.87 1004.33 1004.74 1004.86 1004.85 1004.84 1004.67 1004.59 1004.53 1004.47 1004.25 1003.83 1003.44 1002.81 1001.14 1000.74 1000.97 1000.81 1002.26 1000.02 1000.31 1001.84 1003.12 1003.77 1004.24 1004.85 1005.63 1006.34 1006.89 1007.28 1007.91 1008.17 1008.62 1008.85 1008.76 1008.95 1009.01 1009.08 1009.01 1009.15 1009.24 1009.25
Wind_Speed
16 17 19 19 18 16 15 14 14 14 13 12 13 12 12 12 12 12 13 13 12 12 12 11 9 8 9 11 12 12 10 8 7 8 9 11 10 8 9 10 2 11 10
20 17 18 19 19 18 15 13 13 13 12 12 13 12 11 11 11 10 11 11 11 11 11 10 9 9 10 11 10 9 7 5 3 4 7 9 11 9 9 11 13 10 9
19 16 17 19 18 18 16 13 13 12 12 12 13 12 11 11 11 10 10 9 9 10 9 8 8 9 10 9 8 7 5 2 3 3 3 5 8 11 9 9 9 9 8
17 13 14 16 18 17 16 14 13 13 11 12 12 12 11 10 9 10 9 8 8 8 8 7 8 8 8 7 6 5 3 3 6 7 7 9 8 11 11 7 7 6 7
16 13 14 14 15 16 16 15 14 12 12 12 12 12 12 11 10 9 7 7 8 8 8 7 7 7 6 6 4 3 2 5 9 11 10 5 6 9 10 7 6 6 8
17 16 17 14 15 15 16 14 14 14 12 13 12 12 11 11 10 9 9 7 6 7 7 7 6 5 5 4 3 1 2 7 10 8 10 6 8 12 11 8 7 7 7
17 18 16 14 13 15 14 15 15 16 15 13 14 13 12 10 9 8 8 7 7 5 5 5 5 4 2 2 1 1 3 7 8 9 9 8 10 11 10 9 6 5 3
17 16 15 16 14 14 15 15 15 15 16 17 15 14 13 12 10 8 7 6 6 7 6 6 5 3 2 1 1 3 4 6 9 9 10 6 12 12 10 7 5 4 1
16 15 13 13 12 13 13 14 14 14 15 15 16 15 14 12 11 9 8 6 6 5 5 5 4 4 3 3 3 4 5 7 7 7 11 7 11 11 10 7 5 5 4
12 18 14 11 12 11 11 13 14 14 13 14 14 14 15 13 12 11 9 8 8 7 6 5 4 4 4 5 6 7 8 9 8 9 8 5 13 12 10 8 7 6 7
13 15 15 14 12 11 11 11 12 14 15 14 14 14 12 8 9 12 12 15 12 11 9 8 6 5 5 8 11 11 10 4 9 7 3 14 13 12 9 7 7 8 8
15 16 16 15 15 13 11 13 11 11 9 10 10 11 8 8 10 11 12 15 14 12 11 10 9 7 7 6 6 12 5 9 8 6 5 13 12 11 9 7 8 8 10
13 11 19 15 13 13 10 9 7 7 7 8 12 11 10 7 6 7 6 7 6 11 6 8 7 6 8 8 6 6 8 9 7 3 10 12 11 10 9 8 8 8 10
10 12 10 16 13 11 7 10 9 8 8 7 8 9 8 6 7 7 7 9 8 7 7 7 6 8 9 8 5 4 5 4 3 3 5 12 11 11 10 9 9 9 10
7 4 11 11 10 7 6 3 8 8 8 8 9 9 8 8 6 5 6 8 10 8 8 6 7 8 6 4 5 6 6 5 2 2 3 13 13 12 12 11 11 10 11
5 9 9 9 14 6 7 5 1 7 7 9 9 10 13 7 8 7 5 5 6 7 9 8 6 5 4 3 6 6 3 3 3 4 3 5 13 12 13 13 12 11 11
5 3 11 12 11 10 10 5 4 4 5 5 8 10 14 10 6 6 6 4 5 5 6 7 5 5 4 4 5 3 4 6 6 7 4 3 5 12 12 12 13 13 13
5 6 1 12 21 26 11 8 6 6 5 8 5 6 13 13 10 6 5 7 5 4 4 3 4 4 5 5 5 6 6 7 6 5 4 4 4 2 10 13 12 13 14
7 8 7 8 7 5 10 9 9 9 7 6 7 6 10 14 12 6 6 5 6 4 5 5 3 4 4 6 6 5 5 4 4 3 2 3 3 4 3 10 14 13 14
8 7 6 5 7 4 3 9 8 8 8 8 9 9 9 12 15 11 8 7 8 7 7 8 9 8 5 5 4 3 5 4 5 4 5 4 4 6 3 4 4 6 14
8 6 5 6 5 4 3 4 7 8 7 8 8 9 10 11 15 15 10 11 7 9 11 8 7 4 3 3 2 2 2 4 4 3 3 4 5 3 4 3 3 4 5
6 5 3 3 5 4 3 4 5 4 8 10 10 12 11 9 14 12 14 12 12 9 10 9 10 6 4 6 4 3 3 3 3 5 4 2 5 3 5 7 5 5 4
5 4 2 2 2 4 6 5 5 6 4 7 6 9 11 14 15 16 16 13 13 13 10 11 10 12 9 5 7 6 4 5 4 4 6 4 6 4 2 4 6 7 5
3 2 5 5 6 5 5 5 7 6 7 8 9 8 10 16 20 20 18 17 16 13 15 12 11 10 8 9 7 10 6 3 5 4 3 5 5 4 5 3 3 1 4
5 3 3 4 3 5 4 4 4 7 8 7 7 11 14 12 20 19 20 19 17 15 17 16 15 15 12 10 10 10 9 4 3 2 4 4 3 4 5 5 5 5 2
5 5 5 5 4 5 6 6 6 6 8 9 10 10 11 9 12 11 17 18 22 18 15 15 15 16 14 14 11 10 9 7 6 4 3 3 4 4 4 4 5 5 5
Wind_Direction
127 135 131 129 130 135 140 144 138 136 134 132 128 122 114 109 109 109 105 103 103 104 108 107 104 99 91 84 78 76 77 80 78 86 103 105 92 76 64 41 88 83 78
131 139 137 133 136 138 143 145 139 137 136 135 130 125 119 117 117 112 109 110 111 113 113 114 117 113 106 100 95 91 87 79 79 104 124 121 113 92 73 65 73 86 80
131 134 141 136 137 140 144 143 139 140 141 139 133 129 126 124 124 122 120 116 117 116 116 121 122 118 114 112 109 106 98 49 335 310 238 212 125 112 92 78 82 85 83
131 143 139 138 139 141 145 144 143 144 144 140 135 134 130 129 128 129 130 127 125 122 124 131 130 124 118 116 108 100 74 346 308 301 271 224 122 125 112 95 87 88 80
134 154 132 138 138 141 144 147 146 147 146 143 141 139 138 137 133 133 134 133 136 136 139 142 132 127 129 126 117 95 33 314 308 310 286 52 107 124 115 103 106 85 59
141 148 140 141 141 142 144 147 151 150 150 146 144 141 142 143 140 137 141 143 149 147 148 141 134 141 147 136 121 66 333 311 318 289 289 104 108 136 118 103 80 72 66
142 128 144 138 142 144 148 151 154 155 151 151 149 146 146 144 143 143 146 150 150 150 143 139 139 142 141 134 154 265 305 312 297 292 295 91 112 134 125 119 105 89 83
126 136 145 143 148 151 152 156 158 160 156 153 153 149 147 148 151 152 156 159 156 157 158 157 155 160 155 178 252 283 294 298 305 301 303 100 138 140 131 131 132 128 152
133 132 146 160 157 154 155 155 160 160 159 156 153 149 148 152 155 156 159 159 156 158 160 166 168 177 192 214 248 269 279 291 296 286 287 109 137 134 141 149 167 177 204
146 135 145 165 171 172 167 163 160 160 159 154 153 153 152 155 161 163 158 171 169 169 173 175 184 209 237 248 244 243 253 266 258 265 270 125 136 139 151 169 190 200 209
157 141 149 172 175 186 175 173 163 167 161 160 158 158 152 173 175 174 188 173 175 175 181 183 196 214 236 254 247 239 241 249 252 230 159 145 146 146 163 179 195 213 216
165 163 155 169 171 186 190 161 179 182 185 182 182 174 188 202 175 189 183 168 174 181 184 190 194 207 228 246 236 223 222 237 244 253 126 156 153 155 170 189 205 208 221
193 179 160 161 162 184 213 154 173 185 190 193 195 182 192 197 212 191 152 166 179 185 189 194 197 213 214 231 249 183 216 237 239 243 138 157 160 167 177 198 215 214 214
202 175 193 149 156 178 196 161 172 187 181 190 202 199 186 207 198 179 161 178 184 180 203 184 202 203 218 231 250 275 281 309 299 39 146 167 173 180 190 201 216 218 214
299 99 122 125 161 159 216 195 170 184 182 191 182 200 204 194 200 196 189 192 180 176 190 210 206 199 205 224 242 236 226 229 289 339 158 188 191 188 196 202 213 222 215
315 101 97 76 45 334 228 215 273 180 195 183 185 190 187 205 207 182 193 212 182 194 181 193 192 205 183 218 242 222 241 246 248 231 257 173 203 203 205 202 209 215 214
269 117 143 144 153 204 218 233 219 236 198 211 203 182 187 201 203 196 187 209 217 189 194 174 198 167 169 223 240 251 224 223 208 221 214 244 197 206 214 214 212 209 213
6 9 328 177 184 197 180 180 232 234 222 225 217 187 183 192 197 188 185 206 207 213 190 187 166 171 182 220 227 210 204 215 204 182 176 226 247 182 206 220 217 216 215
34 20 18 20 4 192 177 186 194 215 229 244 217 218 185 188 198 193 212 205 203 205 199 177 179 168 218 226 213 195 221 225 201 206 234 246 276 256 221 201 212 213 219
77 34 8 345 324 338 261 197 205 206 214 218 229 218 193 183 191 196 199 229 200 208 212 186 200 191 192 197 226 205 219 221 190 210 209 209 232 245 202 216 200 222 221
105 77 22 355 331 309 307 263 202 214 223 220 227 226 213 195 188 188 202 202 225 214 208 206 209 206 192 170 154 288 271 226 218 240 253 208 203 248 212 193 227 219 223
118 153 104 43 11 344 296 275 283 253 214 218 209 216 219 177 189 198 197 207 211 222 203 210 199 193 186 179 167 132 237 285 192 218 236 197 144 238 189 192 198 230 187
59 31 340 48 56 10 321 308 300 281 262 271 262 209 205 200 188 195 203 205 211 218 210 203 196 187 192 190 182 159 205 205 154 209 216 215 195 209 212 193 198 192 193
45 345 11 33 27 328 357 328 316 297 292 285 255 259 208 210 199 188 202 198 209 209 215 201 206 202 191 193 197 215 240 183 179 201 224 215 190 181 216 214 206 221 296
13 328 351 55 360 313 283 276 285 295 301 304 282 284 237 208 232 205 199 196 202 209 202 196 195 199 200 197 199 200 223 222 256 228 198 191 183 188 210 199 205 202 230
286 5 349 2 296 292 309 291 277 263 276 289 293 294 293 279 236 221 218 224 208 199 201 202 197 197 201 208 202 198 190 191 192 194 214 237 214 243 221 221 194 187 212